Regional Weather Roundup
Issued by NWS

Home | Current Version | Previous Version | Graphics & Text | Print | Product List | Glossary On
Versions: 1 2 3 4 5 6 7 8 9 10 11 12 13 14 15 16 17 18 19 20 21 22 23 24 25 26 27 28 29 30 31 32 33 34 35 36 37 38 39 40 41 42 43 44 45 46 47 48 49 50
932
ASUS44 KMEG 281710
RWRTN
TENNESSEE HOURLY STATE WEATHER ROUNDUP
NATIONAL WEATHER SERVICE MEMPHIS TN
1200 PM CDT TUE MAR 28 2017

TNZ002-004-019-021-049-052-054-088>092-281800-
WEST TENNESSEE

CITY           SKY/WX    TMP DP  RH WIND       PRES   REMARKS
MEMPHIS INTL   MOSUNNY   72  57  59 VRB6      30.02F
NWS MEMPHIS      N/A     69 N/A N/A MISG        N/A
JACKSON        MOSUNNY   67  56  67 N6        30.04S
DYERSBURG      PTSUNNY   63  54  72 N6        30.06F
SOMERVILLE     SUNNY     68  57  68 VRB6      30.02F
BOLIVAR        SUNNY     68  57  68 NW6       30.03S
SAVANNAH       SUNNY     66  57  72 CALM      30.03
$$

TNZ008-025-027-028-033-062-065-066-281800-
NORTH MIDDLE TENNESSEE

CITY           SKY/WX    TMP DP  RH WIND       PRES   REMARKS
NASHVILLE      CLOUDY    66  51  58 N6        30.03S
CLARKSVILLE    CLOUDY    62  54  74 NW7       30.04S
SMYRNA         PTSUNNY   66  55  68 W8        30.04
COOKEVILLE     CLOUDY    63  54  72 W6        30.02
GALLATIN       PTSUNNY   64  54  68 NW5       30.05S
CROSSVILLE     PTSUNNY   60  52  74 W8        30.03F
$$

TNZ061-075-076-078-094-096-097-281800-
SOUTH MIDDLE TENNESSEE

CITY           SKY/WX    TMP DP  RH WIND       PRES   REMARKS
$$

TNZ017-018-042-046-047-281800-
NORTHEAST TENNESSEE

CITY           SKY/WX    TMP DP  RH WIND       PRES   REMARKS
TRI CITIES     CLOUDY    64  52  64 W13G20    29.99S
ELIZABETHTON   DRIZZLE   61  55  82 SW10      29.98F
$$

TNZ012-013-036-069-073-074-281800-
CENTRAL EAST TENNESSEE

CITY           SKY/WX    TMP DP  RH WIND       PRES   REMARKS
KNOXVILLE      PTSUNNY   64  56  75 SW3       30.00S
OAK RIDGE      CLOUDY    71  51  49 W8        30.00F
GATLINBURG     CLOUDY    64  54  68 W6        30.00S
MORRISTOWN     CLOUDY    64  55  72 NW8       29.99S
$$

TNZ083-085-099-281800-
SOUTHEAST TENNESSEE

CITY           SKY/WX    TMP DP  RH WIND       PRES   REMARKS
CHATTANOOGA    PTSUNNY   69  58  67 W3        30.01S
$$

SKY/WX REPORTED AS FAIR MEANS FEW OR NO CLOUDS BELOW
12 THOUSAND FEET.





USA.gov is the U.S. government's official web portal to all federal, state and local government web resources and services.